| time (UTC) | temp F | wind direction | speed knots | gust knots | rain 1hr in | rain 24hr in | rain mn in | humidity % | barometer mb |
| 20260510063910 | 54 | 33 | 9.6 | 21.7 | 0.00 | 0.00 | 0.00 | 79 | 1014.0 |
| 20260510062910 | 54 | 33 | 9.6 | 21.7 | 0.00 | 0.00 | 0.00 | 79 | 1014.0 |
| 20260510061909 | 54 | 33 | 9.6 | 21.7 | 0.00 | 0.00 | 0.00 | 79 | 1014.0 |
| 20260510060909 | 54 | 33 | 9.6 | 21.7 | 0.00 | 0.00 | 0.00 | 79 | 1014.0 |
| 20260510055909 | 54 | 33 | 10.4 | 21.7 | 0.00 | 0.00 | 0.00 | 79 | 1014.0 |
| 20260510054909 | 54 | 33 | 10.4 | 21.7 | 0.00 | 0.00 | 0.00 | 79 | 1014.0 |
| 20260510053909 | 51 | 46 | 7.0 | 17.4 | 0.00 | 0.00 | 0.00 | 60 | 1014.0 |
| 20260510052908 | 51 | 46 | 7.0 | 17.4 | 0.00 | 0.00 | 0.00 | 60 | 1014.0 |
| 20260510051908 | 51 | 46 | 7.0 | 17.4 | 0.00 | 0.00 | 0.00 | 60 | 1014.0 |
| 20260510050908 | 51 | 46 | 7.0 | 17.4 | 0.00 | 0.00 | 0.00 | 60 | 1014.0 |
| 20260510045908 | 51 | 46 | 7.0 | 17.4 | 0.00 | 0.00 | 0.00 | 60 | 1014.0 |
| 20260510044908 | 51 | 46 | 7.0 | 17.4 | 0.00 | 0.00 | 0.00 | 60 | 1014.0 |
| 20260510043908 | 51 | 46 | 7.0 | 17.4 | 0.00 | 0.00 | 0.00 | 60 | 1014.0 |
| 20260510042907 | 51 | 46 | 7.0 | 17.4 | 0.00 | 0.00 | 0.00 | 60 | 1014.0 |
| 20260510041907 | 51 | 46 | 7.0 | 17.4 | 0.00 | 0.00 | 0.00 | 60 | 1014.0 |
| 20260510040907 | 51 | 46 | 7.0 | 17.4 | 0.00 | 0.00 | 0.00 | 60 | 1014.0 |
| 20260510035907 | 51 | 46 | 7.0 | 17.4 | 0.00 | 0.00 | 0.00 | 60 | 1014.0 |
| 20260510034907 | 51 | 46 | 7.0 | 17.4 | 0.00 | 0.00 | 0.00 | 60 | 1014.0 |
| 20260510033907 | 51 | 46 | 7.0 | 17.4 | 0.00 | 0.00 | 0.00 | 60 | 1014.0 |
| 20260510032906 | 51 | 46 | 7.0 | 17.4 | 0.00 | 0.00 | 0.00 | 60 | 1014.0 |
| 20260510031906 | 52 | 46 | 7.0 | 17.4 | 0.00 | 0.00 | 0.00 | 60 | 1014.0 |
| 20260510030906 | 52 | 46 | 7.0 | 17.4 | 0.00 | 0.00 | 0.00 | 60 | 1014.0 |
| 20260510025906 | 52 | 46 | 7.0 | 17.4 | 0.00 | 0.00 | 0.00 | 60 | 1014.0 |
| 20260510024906 | 52 | 46 | 7.0 | 17.4 | 0.00 | 0.00 | 0.00 | 60 | 1014.0 |
| 20260510023906 | 52 | 46 | 7.0 | 17.4 | 0.00 | 0.00 | 0.00 | 60 | 1014.0 |
| 20260510022905 | 52 | 46 | 7.0 | 17.4 | 0.00 | 0.00 | 0.00 | 60 | 1014.0 |
| 20260510021905 | 52 | 46 | 7.0 | 17.4 | 0.00 | 0.00 | 0.00 | 60 | 1014.0 |
| 20260510020905 | 52 | 46 | 7.0 | 17.4 | 0.00 | 0.00 | 0.00 | 60 | 1014.0 |
| 20260510015905 | 52 | 46 | 7.0 | 17.4 | 0.00 | 0.00 | 0.00 | 60 | 1014.0 |
| 20260510014904 | 52 | 46 | 7.0 | 17.4 | 0.00 | 0.00 | 0.00 | 60 | 1014.0 |
| 20260510013904 | 52 | 46 | 7.0 | 17.4 | 0.00 | 0.00 | 0.00 | 60 | 1014.0 |
| 20260510012904 | 53 | 46 | 7.0 | 17.4 | 0.00 | 0.00 | 0.00 | 60 | 1014.0 |
| 20260510011904 | 53 | 46 | 7.0 | 17.4 | 0.00 | 0.00 | 0.00 | 60 | 1014.0 |
| 20260510010904 | 53 | 46 | 7.0 | 17.4 | 0.00 | 0.00 | 0.00 | 60 | 1014.0 |
| 20260510005904 | 53 | 46 | 7.0 | 17.4 | 0.00 | 0.00 | 0.00 | 60 | 1014.0 |
| 20260510004904 | 53 | 46 | 7.0 | 17.4 | 0.00 | 0.00 | 0.00 | 60 | 1014.0 |
| 20260510003903 | 54 | 46 | 7.0 | 17.4 | 0.00 | 0.00 | 0.00 | 60 | 1015.0 |
| 20260510002903 | 54 | 46 | 7.0 | 17.4 | 0.00 | 0.00 | 0.00 | 60 | 1015.0 |
| 20260510001903 | 54 | 46 | 7.0 | 17.4 | 0.00 | 0.00 | 0.00 | 60 | 1015.0 |
| 20260510000903 | 54 | 46 | 7.0 | 17.4 | 0.00 | 0.00 | 0.00 | 60 | 1015.0 |
| 20260509235902 | 55 | 46 | 7.0 | 17.4 | 0.00 | 0.00 | 0.00 | 60 | 1015.0 |
| 20260509234902 | 55 | 46 | 7.0 | 17.4 | 0.00 | 0.00 | 0.00 | 60 | 1015.0 |
| 20260509233902 | 55 | 46 | 7.0 | 17.4 | 0.00 | 0.00 | 0.00 | 60 | 1015.0 |
| 20260509232902 | 55 | 46 | 7.0 | 17.4 | 0.00 | 0.00 | 0.00 | 60 | 1015.0 |
| 20260509231902 | 55 | 46 | 7.0 | 17.4 | 0.00 | 0.00 | 0.00 | 60 | 1015.0 |
| 20260509230902 | 55 | 46 | 7.0 | 17.4 | 0.00 | 0.00 | 0.00 | 60 | 1015.0 |
| 20260509225901 | 55 | 46 | 7.0 | 17.4 | 0.00 | 0.00 | 0.00 | 60 | 1015.0 |
| 20260509224901 | 55 | 46 | 7.0 | 17.4 | 0.00 | 0.00 | 0.00 | 60 | 1015.0 |
| 20260509223901 | 55 | 46 | 7.0 | 17.4 | 0.00 | 0.00 | 0.00 | 60 | 1015.0 |
| 20260509222901 | 55 | 46 | 7.0 | 17.4 | 0.00 | 0.00 | 0.00 | 60 | 1015.0 |
| 20260509221901 | 55 | 46 | 7.0 | 17.4 | 0.00 | 0.00 | 0.00 | 60 | 1015.0 |
| 20260509220900 | 56 | 46 | 7.0 | 17.4 | 0.00 | 0.00 | 0.00 | 60 | 1015.0 |
| 20260509215900 | 56 | 46 | 7.0 | 17.4 | 0.00 | 0.00 | 0.00 | 60 | 1015.0 |
| 20260509214900 | 56 | 46 | 7.0 | 17.4 | 0.00 | 0.00 | 0.00 | 60 | 1015.0 |
| 20260509213900 | 56 | 46 | 7.0 | 17.4 | 0.00 | 0.00 | 0.00 | 60 | 1015.0 |
| 20260509212900 | 56 | 46 | 7.0 | 17.4 | 0.00 | 0.00 | 0.00 | 60 | 1015.0 |
| 20260509211900 | 56 | 46 | 7.0 | 17.4 | 0.00 | 0.00 | 0.00 | 60 | 1015.0 |
| 20260509210859 | 56 | 46 | 7.0 | 17.4 | 0.00 | 0.00 | 0.00 | 60 | 1015.0 |
| 20260509205859 | 56 | 46 | 7.0 | 17.4 | 0.00 | 0.00 | 0.00 | 60 | 1015.0 |
| 20260509204859 | 56 | 46 | 7.0 | 17.4 | 0.00 | 0.00 | 0.00 | 60 | 1015.0 |
| 20260509203859 | 56 | 46 | 7.0 | 17.4 | 0.00 | 0.00 | 0.00 | 60 | 1015.0 |
| 20260509202859 | 56 | 46 | 7.0 | 17.4 | 0.00 | 0.00 | 0.00 | 60 | 1015.0 |
| 20260509201858 | 56 | 46 | 7.0 | 17.4 | 0.00 | 0.00 | 0.00 | 60 | 1015.0 |
| 20260509200858 | 56 | 46 | 7.0 | 17.4 | 0.00 | 0.00 | 0.00 | 60 | 1015.0 |
| 20260509195858 | 56 | 46 | 7.0 | 17.4 | 0.00 | 0.00 | 0.00 | 60 | 1015.0 |
| 20260509194858 | 57 | 46 | 7.0 | 17.4 | 0.00 | 0.00 | 0.00 | 60 | 1015.0 |
| 20260509193858 | 58 | 46 | 7.0 | 17.4 | 0.00 | 0.00 | 0.00 | 60 | 1015.0 |
| 20260509192858 | 59 | 46 | 7.0 | 17.4 | 0.00 | 0.00 | 0.00 | 60 | 1014.0 |
| 20260509191857 | 59 | 46 | 7.8 | 17.4 | 0.00 | 0.00 | 0.00 | 60 | 1014.0 |
| 20260509190858 | 55 | 46 | 7.0 | 17.4 | 0.00 | 0.00 | 0.00 | 65 | 1015.0 |
| 20260509185857 | 55 | 46 | 7.0 | 17.4 | 0.00 | 0.00 | 0.00 | 65 | 1015.0 |
| 20260509184857 | 55 | 46 | 7.0 | 17.4 | 0.00 | 0.00 | 0.00 | 65 | 1015.0 |
| 20260509183857 | 55 | 46 | 7.8 | 17.4 | 0.00 | 0.00 | 0.00 | 65 | 1015.0 |
| 20260509182856 | 68 | 63 | 6.1 | 13.0 | 0.00 | 0.00 | 0.00 | 56 | 1014.0 |
| 20260509181856 | 68 | 63 | 6.1 | 13.0 | 0.00 | 0.00 | 0.00 | 56 | 1014.0 |
| 20260509180856 | 70 | 63 | 6.1 | 13.0 | 0.00 | 0.00 | 0.00 | 59 | 1014.0 |
| 20260509175856 | 70 | 63 | 6.1 | 13.0 | 0.00 | 0.00 | 0.00 | 59 | 1014.0 |
| 20260509174851 | 70 | 63 | 6.1 | 13.0 | 0.00 | 0.00 | 0.00 | 59 | 1014.0 |
| 20260509173851 | 70 | 77 | 7.0 | 7.0 | 0.00 | 0.00 | 0.00 | 58 | 1014.0 |
| 20260509172851 | 70 | 77 | 7.0 | 7.0 | 0.00 | 0.00 | 0.00 | 58 | 1014.0 |
| 20260509171851 | 70 | 77 | 7.0 | 7.0 | 0.00 | 0.00 | 0.00 | 58 | 1014.0 |
| 20260509170851 | 70 | 77 | 7.0 | 7.0 | 0.00 | 0.00 | 0.00 | 58 | 1014.0 |
| 20260509165850 | 70 | 77 | 7.0 | 7.0 | 0.00 | 0.00 | 0.00 | 58 | 1014.0 |
| 20260509164850 | 70 | 77 | 7.0 | 7.0 | 0.00 | 0.00 | 0.00 | 58 | 1014.0 |
| 20260509163850 | 70 | 77 | 7.0 | 7.0 | 0.00 | 0.00 | 0.00 | 58 | 1014.0 |
| 20260509162850 | 70 | 77 | 7.0 | 7.0 | 0.00 | 0.00 | 0.00 | 58 | 1014.0 |
| 20260509161850 | 70 | 77 | 7.0 | 7.0 | 0.00 | 0.00 | 0.00 | 58 | 1014.0 |
| 20260509160850 | 70 | 77 | 7.0 | 7.0 | 0.00 | 0.00 | 0.00 | 58 | 1014.0 |
| 20260509155849 | 70 | 77 | 7.0 | 7.0 | 0.00 | 0.00 | 0.00 | 58 | 1014.0 |
| 20260509154849 | 70 | 77 | 7.0 | 7.0 | 0.00 | 0.00 | 0.00 | 58 | 1014.0 |
| 20260509153849 | 70 | 77 | 7.0 | 7.0 | 0.00 | 0.00 | 0.00 | 58 | 1014.0 |
| 20260509152849 | 70 | 77 | 7.0 | 7.0 | 0.00 | 0.00 | 0.00 | 58 | 1014.0 |
| 20260509151849 | 70 | 77 | 7.0 | 7.0 | 0.00 | 0.00 | 0.00 | 58 | 1014.0 |
| 20260509150848 | 70 | 77 | 7.0 | 7.0 | 0.00 | 0.00 | 0.00 | 58 | 1015.0 |
| 20260509145848 | 70 | 77 | 7.0 | 7.0 | 0.00 | 0.00 | 0.00 | 58 | 1015.0 |
| 20260509144848 | 70 | 77 | 7.0 | 7.0 | 0.00 | 0.00 | 0.00 | 58 | 1015.0 |
| 20260509143848 | 70 | 77 | 7.0 | 7.0 | 0.00 | 0.00 | 0.00 | 58 | 1015.0 |
| 20260509142848 | 70 | 77 | 7.0 | 7.0 | 0.00 | 0.00 | 0.00 | 58 | 1015.0 |
| 20260509141848 | 70 | 77 | 7.0 | 7.0 | 0.00 | 0.00 | 0.00 | 58 | 1015.0 |
| 20260509140847 | 70 | 77 | 7.0 | 7.0 | 0.00 | 0.00 | 0.00 | 58 | 1015.0 |
| 20260509135847 | 70 | 77 | 7.0 | 7.0 | 0.00 | 0.00 | 0.00 | 58 | 1015.0 |
| 20260509134847 | 70 | 77 | 7.0 | 7.0 | 0.00 | 0.00 | 0.00 | 58 | 1015.0 |
| 20260509133847 | 70 | 77 | 7.0 | 7.0 | 0.00 | 0.00 | 0.00 | 58 | 1015.0 |
| 20260509132847 | 70 | 77 | 7.0 | 7.0 | 0.00 | 0.00 | 0.00 | 58 | 1016.0 |
| 20260509131847 | 70 | 77 | 7.0 | 7.0 | 0.00 | 0.00 | 0.00 | 58 | 1016.0 |
| 20260509130846 | 70 | 77 | 7.0 | 7.0 | 0.00 | 0.00 | 0.00 | 58 | 1016.0 |
| 20260509125846 | 70 | 77 | 7.0 | 7.0 | 0.00 | 0.00 | 0.00 | 58 | 1016.0 |
| 20260509124846 | 70 | 77 | 7.0 | 7.0 | 0.00 | 0.00 | 0.00 | 58 | 1016.0 |
| 20260509123846 | 70 | 77 | 7.0 | 7.0 | 0.00 | 0.00 | 0.00 | 58 | 1016.0 |
| 20260509122846 | 70 | 77 | 7.0 | 7.0 | 0.00 | 0.00 | 0.00 | 58 | 1016.0 |
| 20260509121846 | 70 | 77 | 7.0 | 7.0 | 0.00 | 0.00 | 0.00 | 58 | 1016.0 |
| 20260509120846 | 70 | 77 | 7.0 | 7.0 | 0.00 | 0.00 | 0.00 | 58 | 1016.0 |
| 20260509115845 | 70 | 77 | 7.0 | 7.0 | 0.00 | 0.00 | 0.00 | 58 | 1016.0 |
| 20260509114845 | 70 | 77 | 7.0 | 7.0 | 0.00 | 0.00 | 0.00 | 58 | 1016.0 |
| 20260509113846 | 70 | 77 | 7.0 | 7.0 | 0.00 | 0.00 | 0.00 | 58 | 1016.0 |
| 20260509112845 | 70 | 77 | 7.0 | 7.0 | 0.00 | 0.00 | 0.00 | 58 | 1017.0 |
| 20260509111844 | 70 | 77 | 7.0 | 7.0 | 0.00 | 0.00 | 0.00 | 58 | 1017.0 |
| 20260509110844 | 70 | 77 | 7.8 | 7.8 | 0.00 | 0.00 | 0.00 | 58 | 1017.0 |
| 20260509105844 | 63 | 77 | 7.0 | 9.6 | 0.00 | 0.00 | 0.00 | 60 | 1017.0 |
| 20260509104844 | 63 | 77 | 7.0 | 9.6 | 0.00 | 0.00 | 0.00 | 60 | 1017.0 |
| 20260509103844 | 64 | 77 | 7.0 | 9.6 | 0.00 | 0.00 | 0.00 | 60 | 1017.0 |
| 20260509102845 | 64 | 77 | 7.0 | 9.6 | 0.00 | 0.00 | 0.00 | 60 | 1017.0 |
| 20260509101844 | 64 | 77 | 7.0 | 9.6 | 0.00 | 0.00 | 0.00 | 60 | 1017.0 |
| 20260509100843 | 65 | 77 | 7.0 | 9.6 | 0.00 | 0.00 | 0.00 | 60 | 1017.0 |
| 20260509095844 | 66 | 77 | 7.0 | 9.6 | 0.00 | 0.00 | 0.00 | 60 | 1017.0 |
| 20260509094843 | 67 | 77 | 7.0 | 9.6 | 0.00 | 0.00 | 0.00 | 60 | 1017.0 |
| 20260509093842 | 68 | 77 | 7.0 | 10.4 | 0.00 | 0.00 | 0.00 | 60 | 1017.0 |
| 20260509092842 | 53 | 73 | 6.1 | 9.6 | 0.00 | 0.00 | 0.00 | 67 | 1017.0 |
| 20260509091842 | 53 | 73 | 6.1 | 9.6 | 0.00 | 0.00 | 0.00 | 67 | 1017.0 |
| 20260509090842 | 54 | 73 | 6.1 | 9.6 | 0.00 | 0.00 | 0.00 | 67 | 1017.0 |
| 20260509085842 | 55 | 73 | 6.1 | 10.4 | 0.00 | 0.00 | 0.00 | 67 | 1017.0 |
| 20260509084841 | 55 | 73 | 6.1 | 10.4 | 0.00 | 0.00 | 0.00 | 67 | 1017.0 |
| 20260509083841 | 52 | 72 | 4.3 | 8.7 | 0.00 | 0.00 | 0.00 | 79 | 1018.0 |
| 20260509082841 | 52 | 72 | 4.3 | 8.7 | 0.00 | 0.00 | 0.00 | 79 | 1018.0 |
| 20260509081841 | 53 | 72 | 4.3 | 8.7 | 0.00 | 0.00 | 0.00 | 79 | 1018.0 |
| 20260509080841 | 54 | 72 | 4.3 | 8.7 | 0.00 | 0.00 | 0.00 | 79 | 1018.0 |
| 20260509075841 | 54 | 72 | 4.3 | 8.7 | 0.00 | 0.00 | 0.00 | 79 | 1018.0 |
| 20260509074841 | 54 | 72 | 4.3 | 8.7 | 0.00 | 0.00 | 0.00 | 79 | 1018.0 |
| 20260509073840 | 54 | 72 | 4.3 | 8.7 | 0.00 | 0.00 | 0.00 | 79 | 1018.0 |
| 20260509072840 | 54 | 72 | 4.3 | 8.7 | 0.00 | 0.00 | 0.00 | 79 | 1018.0 |
| 20260509071840 | 54 | 72 | 4.3 | 8.7 | 0.00 | 0.00 | 0.00 | 79 | 1018.0 |
| 20260509070840 | 54 | 72 | 4.3 | 8.7 | 0.00 | 0.00 | 0.00 | 79 | 1018.0 |
| 20260509065840 | 54 | 72 | 4.3 | 8.7 | 0.00 | 0.00 | 0.00 | 79 | 1018.0 |
| 20260509064839 | 54 | 72 | 4.3 | 8.7 | 0.00 | 0.00 | 0.00 | 79 | 1018.0 |